Location: ???
(31.7666°N, 35.0037°E)
Time: 01:53:08
(UTC+00:00)

Daily predictions for brighter satellites

Satellite Brightness Start Highest point End
(mag) Time Altitude Azimuth Time Altitude Azimuth Time Altitude Azimuth
Cosmos 2263 Rocket 4.3 01:30:32 10° SSE 01:34:49 23° ESE 01:39:05 10° NE
Lacrosse 5 3.6 01:42:37 28° SE 01:42:37 28° SE 01:45:02 10° SE
Centaur AC-42 4.1 01:43:34 28° S 01:45:42 34° SSE 02:03:45 10° E
CZ-4C R/B 3.6 02:02:57 29° N 02:06:54 54° ENE 02:15:04 10° SE
Aureole 1 Rocket 3.9 02:13:42 70° W 02:13:46 71° WSW 02:21:15 10° S
FALCON 9 R/B 2.9 02:14:14 59° WNW 02:15:49 79° N 02:36:44 10° E
COBE Rocket 3.9 02:19:35 10° SSE 02:24:29 77° ENE 02:25:41 51° N
Nadezhda 4 Rocket 4.0 02:21:43 10° N 02:27:55 77° E 02:34:03 10° S
COSMO-SKYMED 1 4.2 02:26:39 10° SE 02:30:30 32° ENE 02:34:21 10° N
Cosmos 1190 Rocket 4.1 02:28:33 35° N 02:30:46 72° ENE 02:35:59 10° SSE
STARLINK 4.5 02:32:05 38° S 02:32:05 38° S 02:34:50 10° SSE
STARLINK-32 4.5 02:33:40 38° S 02:33:40 38° S 02:36:28 10° SSE
STARLINK-40 4.5 02:35:17 38° S 02:35:17 38° S 02:38:06 10° SSE
STARLINK-44 4.4 02:36:51 38° S 02:36:51 38° S 02:39:42 10° SSE
STARLINK-36 4.4 02:40:02 37° SSW 02:40:02 37° SSW 02:42:58 10° SSE
STARLINK-41 4.4 02:40:33 38° SSW 02:40:33 38° SSW 02:43:35 10° SSE
SL-16 R/B 2.4 02:39:45 48° W 02:40:01 48° WSW 02:45:26 10° S
Cosmos 1420 Rocket 3.8 02:35:24 10° SSW 02:40:37 81° WNW 02:45:49 10° NNE
STARLINK-64 4.4 02:42:18 37° SSW 02:42:18 37° SSW 02:45:22 10° SSE
STARLINK-35 4.5 02:44:49 35° SSW 02:44:49 35° SSW 02:47:49 10° SSE
STARLINK-51 4.5 02:46:25 34° SSW 02:46:25 34° SSW 02:49:27 10° SSE
Cosmos 1862 Rocket 4.2 02:47:24 38° SW 02:47:24 38° SW 02:50:39 10° SSW
Okean O Rocket 3.0 02:45:07 10° NNE 02:49:16 41° E 02:53:25 10° S
Cosmos 1703 Rocket 4.1 02:45:03 10° N 02:49:25 57° E 02:53:44 10° SSE
Timation 1 Rocket 4.2 02:44:08 10° SSW 02:50:04 84° WNW 02:56:04 10° NNE
STARLINK 4.3 02:51:34 36° SW 02:51:34 36° SW 02:55:01 10° SSE
SJ-12 3.8 02:50:45 10° N 02:54:53 88° W 02:58:57 10° SSW
Cosmos 2242 Rocket 3.5 02:53:27 31° NNW 02:55:27 62° W 02:59:53 10° S
Cosmos 44 3.9 02:53:35 10° SSW 02:58:22 55° ESE 03:02:56 10° NE
Cosmos 1869 Rocket 3.5 02:54:57 10° S 02:59:14 83° E 03:03:35 10° N
Cosmos 1634 Rocket 3.9 02:54:32 10° S 03:00:45 86° W 03:06:58 10° N
Cosmos 614 Rocket 4.3 03:01:00 33° WNW 03:02:32 42° WSW 03:07:19 10° S
USA 234 4.5 03:02:40 10° NNE 03:07:07 20° NNW 03:08:17 19° NW
Cosmos 1452 Rocket 3.5 03:03:10 10° SSW 03:08:19 56° WNW 03:13:32 10° N
Cosmos 1340 2.9 03:05:11 10° S 03:08:54 71° E 03:12:38 10° NNE
Meteor 1-27 Rocket 4.5 03:06:49 24° NW 03:09:07 32° W 03:14:13 10° SSW
BREEZE-M DEB (TANK) 4.1 03:07:26 10° SSW 03:09:38 33° SE 03:12:10 10° ENE
Meteor 1-20 Rocket 4.3 03:03:56 10° SSW 03:09:39 58° W 03:15:25 10° N
ALOS 2.1 03:05:19 10° N 03:09:59 75° WNW 03:14:38 10° SSW
Cosmos 1627 Rocket 4.5 03:11:37 10° N 03:17:55 88° W 03:24:16 10° S
Cosmos 2263 Rocket 2.6 03:13:19 10° SW 03:18:25 37° WNW 03:23:34 10° N
Cosmos 1140 Rocket 3.7 03:14:34 16° NNW 03:18:27 48° WSW 03:23:26 10° S
SKYMED 2 3.5 03:14:13 10° S 03:18:30 63° W 03:22:49 10° NNW
Cosmos 407 Rocket 4.3 03:17:30 21° WNW 03:19:53 30° W 03:24:29 10° SSW
Okean 1 3.5 03:16:00 10° N 03:19:58 74° E 03:23:55 10° S
Cosmos 1602 3.7 03:17:43 10° SSW 03:21:27 55° W 03:25:12 10° N
Lacrosse 5 3.6 03:21:51 14° WSW 03:22:28 14° WSW 03:25:04 10° SSW
CZ-4B DEB 4.3 03:19:17 10° N 03:24:37 52° WNW 03:29:58 10° SSW
NOAA 6 3.9 03:20:01 10° N 03:25:09 79° WNW 03:30:16 10° SSW
Cosmos 2142 Rocket 4.5 03:20:33 10° SSW 03:26:54 70° W 03:33:17 10° N
Cosmos 2195 Rocket 4.5 03:20:46 10° NNW 03:27:02 67° W 03:33:16 10° S
Cosmos 1092 Rocket 4.2 03:29:03 10° NNW 03:34:49 45° W 03:40:35 10° SSW
Meteor 1-18 Rocket 4.1 03:29:28 10° NNW 03:35:01 75° W 03:40:35 10° S
GPS 2-04 Rocket1 4.1 03:33:09 10° SW 03:36:50 38° SSE 03:40:39 10° E
Cosmos 1461 3.2 03:33:47 13° NW 03:37:32 51° WSW 03:41:51 10° S
Radarsat Rocket 4.4 03:32:40 10° NNE 03:39:06 87° ESE 03:46:24 10° SSW
Okean 1-7 3.5 03:35:38 10° NNW 03:39:44 39° W 03:43:47 10° SSW
Cosmos 1484 Rocket 4.4 03:39:05 14° NW 03:39:51 15° WNW 03:42:02 10° WSW
Helios 1A Rocket 3.2 03:37:57 10° N 03:41:47 44° WNW 03:45:35 10° SW
GEOS 3 Rocket 3.8 03:38:10 10° SSE 03:43:04 51° WSW 03:48:03 10° NW
FENGYUN 3A 4.2 03:43:43 10° N 03:48:30 34° WNW 03:53:17 10° SW
Meteor 1-11 Rocket 4.3 03:44:09 10° S 03:49:44 65° E 03:55:29 10° NNE
NOSS 3-2 (A) 3.8 03:44:36 10° SSW 03:50:03 64° ESE 03:56:03 10° NE
Cosmos 1844 Rocket 2.9 03:45:59 10° SSW 03:51:33 78° ESE 03:57:08 10° NNE
CZ-4B R/B 3.6 03:48:56 10° N 03:54:12 44° WNW 03:59:32 10° SW
Starlink Launch 2 leader 3.1 03:52:32 10° NNW 03:54:55 44° NE 03:57:16 10° ESE
CZ-4C R/B 3.9 03:48:39 10° NW 03:55:22 31° WSW 04:02:28 10° SSW
Cosmos 2084 Rocket 4.5 03:52:12 10° NW 03:56:01 29° WSW 03:59:48 10° S
Cosmos 1331 Rocket 4.0 03:53:22 10° SSW 03:58:28 65° WNW 04:03:36 10° N
Starlink Launch 2 trailer 2.9 03:56:12 10° NNW 03:58:36 51° NE 04:00:59 10° SE
USA 238 DEB 3.7 03:52:21 10° SSW 03:58:59 89° ESE 04:05:48 10° NNE
USA 238 3.7 03:52:28 10° SSW 03:59:05 88° ESE 04:05:54 10° NNE
STARLINK 1067 4.4 04:00:25 10° NNW 04:03:41 36° NE 04:06:57 10° ESE
